| time (UTC) | temp F | wind direction | speed knots | gust knots | rain 1hr in | rain 24hr in | rain mn in | humidity % | barometer mb |
| 20260505021136 | 60 | 1 | 0.0 | 0.0 | 0.00 | 0.00 | 0.00 | 63 | 1012.8 |
| 20260505020632 | 60 | 2 | 0.0 | 0.0 | 0.00 | 0.00 | 0.00 | 62 | 1012.5 |
| 20260505020128 | 60 | 3 | 0.0 | 0.0 | 0.00 | 0.00 | 0.00 | 61 | 1012.8 |
| 20260505015626 | 60 | 38 | 0.0 | 0.0 | 0.00 | 0.00 | 0.00 | 63 | 1012.8 |
| 20260505015122 | 60 | 39 | 0.0 | 0.0 | 0.00 | 0.00 | 0.00 | 63 | 1012.9 |
| 20260505014619 | 60 | 37 | 0.9 | 0.9 | 0.00 | 0.00 | 0.00 | 62 | 1012.6 |
| 20260505014116 | 60 | 38 | 0.0 | 0.0 | 0.00 | 0.00 | 0.00 | 62 | 1012.8 |
| 20260505013613 | 60 | 52 | 0.0 | 0.0 | 0.00 | 0.00 | 0.00 | 62 | 1013.1 |
| 20260505013110 | 61 | 34 | 0.9 | 0.9 | 0.00 | 0.00 | 0.00 | 60 | 1013.1 |
| 20260505012609 | 61 | 25 | 0.0 | 0.0 | 0.00 | 0.00 | 0.00 | 60 | 1012.9 |
| 20260505012105 | 61 | 9 | 0.0 | 0.0 | 0.00 | 0.00 | 0.00 | 59 | 1013.1 |
| 20260505011600 | 61 | 28 | 0.0 | 0.0 | 0.00 | 0.00 | 0.00 | 59 | 1013.0 |
| 20260505011058 | 61 | 29 | 0.9 | 1.7 | 0.00 | 0.00 | 0.00 | 59 | 1012.8 |
| 20260505010553 | 61 | 40 | 0.0 | 0.0 | 0.00 | 0.00 | 0.00 | 58 | 1013.0 |
| 20260505010050 | 61 | 19 | 0.0 | 0.9 | 0.00 | 0.00 | 0.00 | 59 | 1013.0 |
| 20260505005546 | 61 | 14 | 0.0 | 0.0 | 0.00 | 0.00 | 0.00 | 59 | 1013.2 |
| 20260505005044 | 61 | 355 | 0.9 | 1.7 | 0.00 | 0.00 | 0.00 | 59 | 1013.1 |
| 20260505004541 | 61 | 13 | 0.0 | 0.9 | 0.00 | 0.00 | 0.00 | 60 | 1013.2 |
| 20260505004038 | 61 | 25 | 0.0 | 0.0 | 0.00 | 0.00 | 0.00 | 60 | 1013.2 |
| 20260505003535 | 61 | 55 | 0.9 | 0.9 | 0.00 | 0.00 | 0.00 | 60 | 1013.1 |
| 20260505003032 | 60 | 21 | 1.7 | 1.7 | 0.00 | 0.00 | 0.00 | 60 | 1013.3 |
| 20260505002526 | 60 | 61 | 1.7 | 1.7 | 0.00 | 0.00 | 0.00 | 61 | 1013.4 |
| 20260505002026 | 60 | 35 | 1.7 | 1.7 | 0.00 | 0.00 | 0.00 | 61 | 1013.4 |
| 20260505001522 | 60 | 58 | 1.7 | 1.7 | 0.00 | 0.00 | 0.00 | 61 | 1013.2 |
| 20260505001020 | 61 | 77 | 1.7 | 1.7 | 0.00 | 0.00 | 0.00 | 62 | 1013.4 |
| 20260505000517 | 61 | 39 | 0.9 | 1.7 | 0.00 | 0.00 | 0.00 | 61 | 1013.2 |
| 20260505000015 | 61 | 54 | 0.9 | 0.9 | 0.00 | 0.00 | 0.00 | 60 | 1013.5 |
| 20260504235511 | 61 | 26 | 0.9 | 0.9 | 0.00 | 0.00 | 0.00 | 59 | 1013.4 |
| 20260504235007 | 61 | 69 | 0.0 | 0.9 | 0.00 | 0.00 | 0.00 | 60 | 1013.7 |
| 20260504234505 | 62 | 7 | 1.7 | 3.5 | 0.00 | 0.00 | 0.00 | 59 | 1013.5 |
| 20260504234001 | 62 | 56 | 0.0 | 0.0 | 0.00 | 0.00 | 0.00 | 59 | 1013.6 |
| 20260504233456 | 62 | 22 | 0.0 | 0.0 | 0.00 | 0.00 | 0.00 | 59 | 1013.6 |
| 20260504232954 | 61 | 359 | 0.0 | 0.0 | 0.00 | 0.00 | 0.00 | 58 | 1013.5 |
| 20260504232451 | 62 | 15 | 3.5 | 4.3 | 0.00 | 0.00 | 0.00 | 57 | 1013.5 |
| 20260504231948 | 62 | 65 | 0.9 | 0.9 | 0.00 | 0.00 | 0.00 | 59 | 1013.5 |
| 20260504231444 | 61 | 80 | 1.7 | 3.5 | 0.00 | 0.00 | 0.00 | 61 | 1013.5 |
| 20260504230941 | 62 | 73 | 1.7 | 3.5 | 0.00 | 0.00 | 0.00 | 60 | 1013.6 |
| 20260504230437 | 61 | 76 | 1.7 | 3.5 | 0.00 | 0.00 | 0.00 | 60 | 1013.6 |
| 20260504225937 | 62 | 103 | 4.3 | 5.2 | 0.00 | 0.00 | 0.00 | 60 | 1013.7 |
| 20260504225433 | 61 | 3 | 1.7 | 3.5 | 0.00 | 0.00 | 0.00 | 61 | 1013.9 |
| 20260504224930 | 61 | 72 | 1.7 | 1.7 | 0.00 | 0.00 | 0.00 | 61 | 1013.9 |
| 20260504224427 | 61 | 1 | 0.9 | 3.5 | 0.00 | 0.00 | 0.00 | 61 | 1013.8 |
| 20260504223924 | 61 | 353 | 2.6 | 3.5 | 0.00 | 0.00 | 0.00 | 61 | 1014.0 |
| 20260504223419 | 61 | 29 | 0.9 | 1.7 | 0.00 | 0.00 | 0.00 | 60 | 1014.0 |
| 20260504222916 | 61 | 10 | 0.9 | 0.9 | 0.00 | 0.00 | 0.00 | 59 | 1013.9 |
| 20260504222413 | 61 | 48 | 0.0 | 0.0 | 0.00 | 0.00 | 0.00 | 60 | 1014.1 |
| 20260504221911 | 60 | 48 | 0.0 | 0.0 | 0.00 | 0.00 | 0.00 | 59 | 1014.2 |
| 20260504221408 | 60 | 32 | 0.9 | 1.7 | 0.00 | 0.00 | 0.00 | 60 | 1014.0 |
| 20260504220905 | 60 | 61 | 0.0 | 0.9 | 0.00 | 0.00 | 0.00 | 60 | 1014.1 |
| 20260504220401 | 60 | 64 | 0.9 | 0.9 | 0.00 | 0.00 | 0.00 | 61 | 1014.2 |
| 20260504215859 | 60 | 57 | 0.0 | 0.0 | 0.00 | 0.00 | 0.00 | 61 | 1014.4 |
| 20260504215355 | 60 | 91 | 1.7 | 1.7 | 0.00 | 0.00 | 0.00 | 61 | 1014.5 |
| 20260504214852 | 60 | 34 | 0.0 | 0.0 | 0.00 | 0.00 | 0.00 | 60 | 1014.4 |
| 20260504214348 | 60 | 38 | 0.9 | 0.9 | 0.00 | 0.00 | 0.00 | 60 | 1014.3 |
| 20260504213845 | 60 | 24 | 0.9 | 0.9 | 0.00 | 0.00 | 0.00 | 61 | 1014.4 |
| 20260504213340 | 60 | 38 | 0.0 | 0.0 | 0.00 | 0.00 | 0.00 | 61 | 1014.6 |
| 20260504212838 | 60 | 59 | 0.9 | 0.9 | 0.00 | 0.00 | 0.00 | 60 | 1014.6 |
| 20260504212334 | 60 | 47 | 0.9 | 0.9 | 0.00 | 0.00 | 0.00 | 60 | 1014.4 |
| 20260504211832 | 60 | 6 | 1.7 | 3.5 | 0.00 | 0.00 | 0.00 | 60 | 1014.6 |
| 20260504211328 | 60 | 57 | 0.9 | 1.7 | 0.00 | 0.00 | 0.00 | 60 | 1014.8 |
| 20260504210826 | 60 | 14 | 0.9 | 0.9 | 0.00 | 0.00 | 0.00 | 60 | 1014.6 |
| 20260504210323 | 60 | 46 | 1.7 | 3.5 | 0.00 | 0.00 | 0.00 | 60 | 1014.6 |
| 20260504205820 | 60 | 54 | 0.0 | 0.0 | 0.00 | 0.00 | 0.00 | 59 | 1014.7 |
| 20260504205318 | 60 | 23 | 0.9 | 0.9 | 0.00 | 0.00 | 0.00 | 59 | 1014.6 |
| 20260504204815 | 60 | 43 | 0.9 | 0.9 | 0.00 | 0.00 | 0.00 | 60 | 1014.7 |
| 20260504204314 | 60 | 79 | 0.0 | 0.9 | 0.00 | 0.00 | 0.00 | 59 | 1014.7 |
| 20260504203813 | 60 | 267 | 0.0 | 0.0 | 0.00 | 0.00 | 0.00 | 61 | 1014.6 |
| 20260504203309 | 60 | 15 | 0.0 | 0.0 | 0.00 | 0.00 | 0.00 | 59 | 1014.7 |
| 20260504202804 | 60 | 265 | 0.9 | 0.9 | 0.00 | 0.00 | 0.00 | 58 | 1014.7 |
| 20260504202304 | 60 | 309 | 0.0 | 0.9 | 0.00 | 0.00 | 0.00 | 58 | 1014.7 |
| 20260504201759 | 60 | 305 | 0.9 | 0.9 | 0.00 | 0.00 | 0.00 | 58 | 1014.6 |
| 20260504201256 | 61 | 249 | 1.7 | 1.7 | 0.00 | 0.00 | 0.00 | 58 | 1014.6 |
| 20260504200754 | 61 | 242 | 2.6 | 3.5 | 0.00 | 0.00 | 0.00 | 58 | 1014.6 |
| 20260504200249 | 60 | 338 | 0.9 | 0.9 | 0.00 | 0.00 | 0.00 | 59 | 1014.4 |
| 20260504195746 | 61 | 0 | 0.0 | 0.0 | 0.00 | 0.00 | 0.00 | 59 | 1014.5 |
| 20260504195242 | 61 | 299 | 0.9 | 0.9 | 0.00 | 0.00 | 0.00 | 59 | 1014.7 |
| 20260504194739 | 61 | 261 | 0.9 | 0.9 | 0.00 | 0.00 | 0.00 | 59 | 1014.6 |
| 20260504194235 | 60 | 54 | 0.9 | 0.9 | 0.00 | 0.00 | 0.00 | 58 | 1014.8 |
| 20260504193732 | 60 | 181 | 0.0 | 0.0 | 0.00 | 0.00 | 0.00 | 61 | 1014.8 |
| 20260504193229 | 59 | 182 | 0.0 | 0.9 | 0.00 | 0.00 | 0.00 | 62 | 1014.9 |
| 20260504192728 | 59 | 266 | 1.7 | 1.7 | 0.00 | 0.00 | 0.00 | 61 | 1014.9 |
| 20260504192225 | 59 | 328 | 0.0 | 0.0 | 0.00 | 0.00 | 0.00 | 62 | 1015.0 |
| 20260504191724 | 59 | 230 | 0.0 | 0.9 | 0.00 | 0.00 | 0.00 | 62 | 1014.9 |
| 20260504191220 | 59 | 213 | 0.0 | 0.9 | 0.00 | 0.00 | 0.00 | 62 | 1015.0 |
| 20260504190715 | 58 | 292 | 1.7 | 1.7 | 0.00 | 0.00 | 0.00 | 62 | 1015.2 |
| 20260504190212 | 58 | 276 | 0.9 | 1.7 | 0.00 | 0.00 | 0.00 | 63 | 1015.0 |
| 20260504185709 | 58 | 209 | 0.9 | 1.7 | 0.00 | 0.00 | 0.00 | 62 | 1015.0 |
| 20260504185205 | 59 | 273 | 0.9 | 0.9 | 0.00 | 0.00 | 0.00 | 62 | 1015.0 |
| 20260504184702 | 58 | 339 | 0.0 | 0.0 | 0.00 | 0.00 | 0.00 | 62 | 1014.9 |
| 20260504184157 | 58 | 292 | 1.7 | 3.5 | 0.00 | 0.00 | 0.00 | 63 | 1015.2 |
| 20260504183654 | 58 | 246 | 0.9 | 0.9 | 0.00 | 0.00 | 0.00 | 64 | 1015.0 |
| 20260504183151 | 58 | 280 | 0.9 | 1.7 | 0.00 | 0.00 | 0.00 | 64 | 1015.0 |
| 20260504182649 | 58 | 270 | 1.7 | 1.7 | 0.00 | 0.00 | 0.00 | 64 | 1015.2 |
| 20260504182146 | 58 | 295 | 0.0 | 0.9 | 0.00 | 0.00 | 0.00 | 63 | 1015.1 |
| 20260504181644 | 58 | 262 | 1.7 | 1.7 | 0.00 | 0.00 | 0.00 | 62 | 1015.2 |
| 20260504181141 | 58 | 285 | 0.9 | 0.9 | 0.00 | 0.00 | 0.00 | 63 | 1015.2 |
| 20260504180640 | 58 | 213 | 2.6 | 4.3 | 0.00 | 0.00 | 0.00 | 63 | 1014.9 |
| 20260504180138 | 58 | 260 | 0.9 | 0.9 | 0.00 | 0.00 | 0.00 | 64 | 1015.1 |
| 20260504175635 | 58 | 264 | 1.7 | 1.7 | 0.00 | 0.00 | 0.00 | 64 | 1014.9 |
| 20260504175132 | 58 | 287 | 2.6 | 3.5 | 0.00 | 0.00 | 0.00 | 63 | 1014.9 |
| 20260504174630 | 58 | 283 | 2.6 | 3.5 | 0.00 | 0.00 | 0.00 | 64 | 1014.9 |
| 20260504174126 | 58 | 266 | 1.7 | 1.7 | 0.00 | 0.00 | 0.00 | 64 | 1014.8 |
| 20260504173624 | 58 | 266 | 4.3 | 5.2 | 0.00 | 0.00 | 0.00 | 64 | 1014.6 |
| 20260504173121 | 58 | 263 | 2.6 | 3.5 | 0.00 | 0.00 | 0.00 | 64 | 1014.7 |
| 20260504172617 | 57 | 265 | 1.7 | 1.7 | 0.00 | 0.00 | 0.00 | 65 | 1014.6 |
| 20260504172114 | 57 | 240 | 3.5 | 4.3 | 0.00 | 0.00 | 0.00 | 65 | 1014.7 |
| 20260504171610 | 58 | 275 | 2.6 | 6.1 | 0.00 | 0.00 | 0.00 | 64 | 1014.4 |
| 20260504171108 | 58 | 281 | 0.9 | 0.9 | 0.00 | 0.00 | 0.00 | 64 | 1014.6 |
| 20260504170603 | 57 | 249 | 2.6 | 3.5 | 0.00 | 0.00 | 0.00 | 64 | 1014.5 |
| 20260504150947 | 56 | 205 | 0.0 | 0.9 | 0.00 | 0.00 | 0.00 | 70 | 1014.3 |
| 20260504150444 | 56 | 34 | 0.9 | 1.7 | 0.00 | 0.00 | 0.00 | 70 | 1014.2 |
| 20260504140910 | 55 | 249 | 1.7 | 1.7 | 0.00 | 0.00 | 0.00 | 71 | 1014.0 |
| 20260504140406 | 55 | 193 | 0.0 | 0.9 | 0.00 | 0.00 | 0.00 | 71 | 1014.2 |
| 20260504130331 | 56 | 307 | 0.0 | 0.0 | 0.00 | 0.00 | 0.00 | 70 | 1013.7 |
| 20260504120254 | 56 | 218 | 0.9 | 1.7 | 0.00 | 0.00 | 0.00 | 70 | 1013.5 |
| 20260504110218 | 56 | 256 | 1.7 | 3.5 | 0.00 | 0.00 | 0.00 | 67 | 1013.5 |
| 20260504100142 | 56 | 71 | 0.9 | 1.7 | 0.00 | 0.00 | 0.00 | 67 | 1013.0 |
| 20260504090104 | 56 | 250 | 2.6 | 3.5 | 0.00 | 0.00 | 0.00 | 64 | 1013.0 |
| 20260504081535 | 56 | 254 | 1.7 | 1.7 | 0.00 | 0.00 | 0.00 | 64 | 1013.1 |
| 20260504081031 | 56 | 266 | 1.7 | 1.7 | 0.00 | 0.00 | 0.00 | 64 | 1013.0 |
| 20260504080527 | 56 | 274 | 1.7 | 1.7 | 0.00 | 0.00 | 0.00 | 64 | 1012.9 |
| 20260504050340 | 59 | 281 | 4.3 | 5.2 | 0.00 | 0.00 | 0.00 | 56 | 1011.8 |
| 20260504045838 | 59 | 249 | 4.3 | 6.1 | 0.00 | 0.00 | 0.00 | 56 | 1011.9 |
| 20260504045332 | 60 | 289 | 5.2 | 6.1 | 0.00 | 0.00 | 0.00 | 56 | 1011.6 |
| 20260504044829 | 60 | 253 | 7.0 | 7.8 | 0.00 | 0.00 | 0.00 | 55 | 1011.6 |
| 20260504044327 | 60 | 305 | 3.5 | 5.2 | 0.00 | 0.00 | 0.00 | 56 | 1011.4 |
| 20260504043824 | 60 | 267 | 4.3 | 6.1 | 0.00 | 0.00 | 0.00 | 57 | 1011.3 |
| 20260504043320 | 61 | 274 | 4.3 | 5.2 | 0.00 | 0.00 | 0.00 | 57 | 1011.4 |
| 20260504042818 | 61 | 231 | 4.3 | 5.2 | 0.00 | 0.00 | 0.00 | 56 | 1011.3 |
| 20260504042314 | 61 | 264 | 4.3 | 5.2 | 0.00 | 0.00 | 0.00 | 56 | 1011.1 |
| 20260504041811 | 61 | 326 | 5.2 | 7.0 | 0.00 | 0.00 | 0.00 | 55 | 1011.1 |
| 20260504041307 | 61 | 257 | 4.3 | 6.1 | 0.00 | 0.00 | 0.00 | 56 | 1011.0 |
| 20260504040803 | 62 | 239 | 5.2 | 6.1 | 0.00 | 0.00 | 0.00 | 56 | 1010.9 |
| 20260504040301 | 62 | 273 | 5.2 | 7.0 | 0.00 | 0.00 | 0.00 | 54 | 1010.9 |
| 20260504035756 | 62 | 248 | 3.5 | 4.3 | 0.00 | 0.00 | 0.00 | 55 | 1010.6 |
| 20260504035254 | 62 | 248 | 1.7 | 3.5 | 0.00 | 0.00 | 0.00 | 55 | 1010.8 |
| 20260504034751 | 62 | 275 | 2.6 | 3.5 | 0.00 | 0.00 | 0.00 | 55 | 1010.5 |
| 20260504034249 | 62 | 235 | 3.5 | 5.2 | 0.00 | 0.00 | 0.00 | 54 | 1010.3 |
| 20260504033746 | 62 | 263 | 6.1 | 7.8 | 0.00 | 0.00 | 0.00 | 54 | 1010.3 |
| 20260504033243 | 63 | 277 | 4.3 | 5.2 | 0.00 | 0.00 | 0.00 | 55 | 1010.2 |
| 20260504032740 | 63 | 251 | 2.6 | 4.3 | 0.00 | 0.00 | 0.00 | 54 | 1010.2 |
| 20260504032237 | 63 | 264 | 4.3 | 6.1 | 0.00 | 0.00 | 0.00 | 54 | 1010.2 |
| 20260504031733 | 63 | 267 | 3.5 | 5.2 | 0.00 | 0.00 | 0.00 | 54 | 1010.0 |
| 20260504031232 | 64 | 254 | 5.2 | 6.1 | 0.00 | 0.00 | 0.00 | 53 | 1009.8 |
| 20260504030727 | 64 | 247 | 4.3 | 5.2 | 0.00 | 0.00 | 0.00 | 53 | 1009.8 |
| 20260504030225 | 64 | 259 | 4.3 | 5.2 | 0.00 | 0.00 | 0.00 | 53 | 1009.9 |
| 20260504025721 | 65 | 242 | 5.2 | 7.0 | 0.00 | 0.00 | 0.00 | 53 | 1009.8 |
| 20260504025218 | 65 | 296 | 6.1 | 7.0 | 0.00 | 0.00 | 0.00 | 53 | 1009.6 |
| 20260504024715 | 66 | 282 | 5.2 | 7.0 | 0.00 | 0.00 | 0.00 | 52 | 1009.4 |
| 20260504024211 | 66 | 283 | 3.5 | 4.3 | 0.00 | 0.00 | 0.00 | 53 | 1009.4 |
| 20260504023708 | 66 | 249 | 4.3 | 5.2 | 0.00 | 0.00 | 0.00 | 52 | 1009.3 |
| 20260504023204 | 67 | 267 | 4.3 | 5.2 | 0.00 | 0.00 | 0.00 | 53 | 1009.3 |
| 20260504022700 | 67 | 247 | 3.5 | 4.3 | 0.00 | 0.00 | 0.00 | 52 | 1009.2 |
| 20260504022156 | 68 | 241 | 4.3 | 6.1 | 0.00 | 0.00 | 0.00 | 51 | 1009.1 |
| 20260504021655 | 68 | 257 | 6.1 | 7.8 | 0.00 | 0.00 | 0.00 | 51 | 1008.8 |